Location: Grieser Field
(39.7333°N, 81.7975°W)
Time: 13:24:43
(UTC-04:00)

MOS 1-B - Visible Passes

Search period start: 23 October 2017 00:00
Search period end: 02 November 2017 00:00
Orbit: 905 x 914 km, 99.3° (Epoch: 23 October)

Date Brightness Start Highest point End Pass type
(mag) Time Alt. Az. Time Alt. Az. Time Alt. Az.
23 Oct 6.1 04:13:22 10° NE 04:17:13 27° ENE 04:17:13 27° ENE visible
23 Oct 4.7 05:54:56 10° N 06:00:14 38° WNW 06:00:27 38° WNW visible
24 Oct 6.0 04:18:40 10° NE 04:22:34 30° ENE 04:22:34 30° ENE visible
24 Oct 4.9 06:00:26 10° N 06:05:36 35° WNW 06:05:49 35° WNW visible
25 Oct 5.8 04:23:58 10° NNE 04:27:55 32° ENE 04:27:55 32° ENE visible
25 Oct 5.0 06:05:57 10° N 06:10:58 32° WNW 06:11:09 32° WNW visible
26 Oct 5.7 04:29:17 10° NNE 04:33:15 35° ENE 04:33:15 35° ENE visible
26 Oct 5.1 06:11:29 10° N 06:16:20 29° WNW 06:16:30 29° WNW visible
27 Oct 5.6 04:34:38 10° NNE 04:38:36 37° ENE 04:38:36 37° ENE visible
27 Oct 5.2 06:17:02 10° N 06:21:42 26° WNW 06:21:51 26° WNW visible
28 Oct 5.5 04:39:58 10° NNE 04:43:57 39° NE 04:43:57 39° NE visible
28 Oct 5.4 06:22:35 10° NNW 06:27:04 24° WNW 06:27:12 24° WNW visible
29 Oct 5.4 04:45:21 10° NNE 04:49:17 41° NE 04:49:17 41° NE visible
29 Oct 5.5 06:28:10 10° NNW 06:32:25 22° WNW 06:32:32 22° WNW visible
30 Oct 5.3 04:50:44 10° NNE 04:54:38 42° NE 04:54:38 42° NE visible
30 Oct 5.6 06:33:46 10° NNW 06:37:46 20° WNW 06:37:52 20° WNW visible
31 Oct 5.2 04:56:06 10° NNE 04:59:58 43° NE 04:59:58 43° NE visible
31 Oct 5.7 06:39:24 10° NNW 06:43:06 18° WNW 06:43:12 18° WNW visible
01 Nov 5.2 05:01:30 10° NNE 05:05:19 43° NNE 05:05:19 43° NNE visible
01 Nov 5.8 06:45:03 10° NNW 06:48:27 16° WNW 06:48:33 16° WNW visible
